Nashville International Airport
KBNA : now visible

Airfield :











YOU CAN JOIN US ON...

 
LOGIN :

Register | Disclaimer

   EN    FR    IT 

 









Legend :    VFR   Marginal VFR   IFR   Intensive IFR   Very Intensive IFR
Visi :
Ceiling :
>= 8 km
>= 3000ft
5 to 8 km
1000 to 3000 ft
1500m to 5 km
500 to 1000 ft
800 to 1500m
200 to 500 ft
< 800m
< 200 ft
Symbols :   Thunderstorms  Fog  Heavy snow  Heavy precipitations  Wind > 20 kt






- Airport Elevation : 599 ft
- IATA code : BNA


KBNA - Nashville International

CURRENT METAR :
  • 170253Z 19003KT 10SM SCT120 20/13 A3014 RMK AO2 SLP203 T02000128 51004

EXPIRED METARs :
  • 170153Z 00000KT 10SM BKN120 21/13 A3014 RMK AO2 SLP200 T02110128
  • 170053Z 16004KT 10SM FEW080 BKN120 22/12 A3014 RMK AO2 SLP201 T02170122

TAF KBNA
Valid from the 17 at 00:00 until the 18 at 00:00 UTC


162320Z 1700/1724 16007KT P6SM BKN080
FM171500 18010G16KT P6SM BKN150
FM172200 17008KT P6SM OVC250
KZME FIR / North America



MET'MAP, your aeronautical weather chart ! - Copyright ORBIFLY December 2007 - Disclaimer

ORBIFLY MET'MAP TEAM :

Programming & Development : Alexandra Zaïnal
Concept & original design : Baudouin d'Aumeries
Assistance for programming : Marc-Olivier Méhu
Technical & hardware support : Manuel Goepfert

Contact : metmap@orbifly.com




SOURCES & CREDITS :

   NOAA       Earth
Advisory